Location: Chippewa Lake
(41.0698°N, 81.9010°W)
Time: 02:11:34
(UTC+00:00)

X-37B - Pass Details

Date: 09 May 2021
Orbit: 386 x 389 km, 45.0° (Epoch: 23 June)

Event Time Altitude Azimuth Distance (km) Brightness Sun altitude
Rises 03:26:12 0° 291° (WNW) 2,272 5.2 -25.5°
Reaches altitude 10° 03:28:17 10° 291° (WNW) 1,415 4.1 -25.7°
Enters shadow 03:29:17 19° 292° (WNW) 1,013 3.2 -25.8°
